Regional Weather Roundup
Issued by NWS Kansas City/Pleasant Hill, MO

Home | Current Version | Previous Version | Text Only | Print | Product List | Glossary On
Versions: 1 2 3 4 5 6 7 8 9 10 11 12 13 14 15 16 17 18 19 20 21 22 23 24 25 26 27 28 29 30 31 32 33 34 35 36 37 38 39 40 41 42 43 44 45 46 47 48 49 50
000
ASUS43 KEAX 250310
RWREAX

WEATHER ROUNDUP FOR EASTERN KANSAS AND NORTHWEST MISSOURI
NATIONAL WEATHER SERVICE KANSAS CITY/PLEASANT HILL MO
1000 PM CDT SUN JUL 24 2016

KSZ040-057-103>105-MOZ028-029-037-043-250400-
...KANSAS CITY METROPOLITAN AREA...

CITY           SKY/WX    TMP DP  RH WIND       PRES   REMARKS
K.C. INTL      CLOUDY    80  69  69 NE7       29.99R
K.C. DOWNTOWN  CLOUDY    83  68  60 NE8       29.97R
LEES SUMMIT    CLOUDY    83  73  72 E12       30.01R
OLATHE - IXD   CLOUDY    83  73  72 NE8       29.99R
OLATHE - OJC   CLOUDY    82  73  74 NE10      29.99R
LAWRENCE       PTCLDY    80  68  66 E5        29.98R

$$

MOZ001>008-011>017-020>025-030>033-038>040-044>046-053-054-250400-
...NORTHERN AND CENTRAL MISSOURI...

CITY           SKY/WX    TMP DP  RH WIND       PRES   REMARKS
ST. JOSEPH     CLOUDY    77  66  68 NE3       29.99R
MOSBY          CLOUDY    81  68  65 CALM      29.97R
WHITEMAN AFB   TSTM      79  72  78 W25G41    29.98R FOG
CLINTON        LGT RAIN  77  73  88 N6        29.98R
SEDALIA        CLOUDY    85  79  82 N6        29.98R HX  98
WARSAW         NOT AVBL
CHILLICOTHE      N/A     80  71  74 CALM      29.98R
KIRKSVILLE     CLOUDY    76  72  87 CALM      29.99R

$$

MOZ041-047>049-056>058-063>065-088>090-097-250400-
...EASTERN AND SOUTHERN MISSOURI...

CITY           SKY/WX    TMP DP  RH WIND       PRES   REMARKS
ST. LOUIS INTL PTCLDY    90  78  68 S13       29.91F HX 104
SPIRIT OF STL  CLEAR     88  80  77 S9        29.90S HX 104
COLUMBIA       PTCLDY    86  77  74 N3        29.95R HX  97
JEFFERSON CITY PTCLDY    86  79  79 CALM      29.92R HX  99
ROLLA          CLEAR     82  73  74 S9        29.97R
OSAGE BEACH    CLEAR     84  81  90 CALM      29.96R HX  99
SPRINGFIELD    CLEAR     86  74  67 SE6       29.98R HX  94
BRANSON        CLOUDY    81  73  78 CALM      30.01R
JOPLIN         CLEAR     85  74  69 SE6       29.96R HX  92
WEST PLAINS    CLEAR     83  73  72 S5        30.03R

$$

IAZ060-094-KSZ022-034>040-054-083-096-NEZ052-066-093-250400-
...KANSAS...SOUTHEAST NEBRASKA AND IOWA...

CITY           SKY/WX    TMP DP  RH WIND       PRES   REMARKS
TOPEKA         CLOUDY    80  68  66 NE6       29.99R
MANHATTAN      CLEAR     78  67  68 N5        30.00R
EMPORIA        CLEAR     84  76  76 NE13      29.98R HX  93
CHANUTE        CLOUDY    85  75  72 SE6       29.95R HX  93
WICHITA        PTCLDY    89  70  53 E8        29.94R HX  94
OMAHA          PTCLDY    74  68  81 N9        30.02R
LINCOLN        CLEAR     77  66  68 CALM      30.04R
FALLS CITY     CLOUDY    73  69  87 NW6       30.01R
LAMONI         CLOUDY    74  68  81 N8        30.00R
DES MOINES     CLOUDY    79  65  62 N6        29.99R

$$




USA.gov is the U.S. government's official web portal to all federal, state and local government web resources and services.